User: anonymous   Login
Location: Unspecified
(0.0000°N, 0.0000°E)
Time: 18:34:51
(UTC+00:00)
Language:

IGS 6A - Orbit

View from above orbital plane
View from above orbital plane
View from above satellite
View from above satellite

Ground track
Ground track

The orbit data is extracted from the following two-line orbital elements,

1 37813U 11050A   21127.99877712 0.00000100  00000-0  94140-5 0    09
2 37813  97.8241 249.4030 0001123  80.7841 279.2157 14.93923816    01
Epoch (UTC): 07 May 2021 23:58:14
Eccentricity: 0.0001123
inclination: 97.8241°
perigee height: 585 km
apogee height: 586 km
right ascension of ascending node: 249.4030°
argument of perigee: 80.7841°
revolutions per day: 14.93923816
mean anomaly at epoch: 279.2157°
orbit number at epoch: 0

The dashed part of the orbit path shows where the satellite is in the earth's shadow,  

DLR